DW7210 Weather Reports


Display with metric or nautical units.
time (UTC)temp
F
wind
direction
speed
MPH
gust
MPH
rain 1hr
in
rain 24hr
in
rain mn
in
humidity
%
barometer
mb
20260502233437 67 158 1.0 3.0 0.00 0.00 0.00 39 1020.0
20260502232417 67 158 4.0 7.0 0.00 0.00 0.00 39 1020.1
20260502231417 67 135 6.0 8.0 0.00 0.00 0.00 38 1020.1
20260502230457 68 135 8.0 10.0 0.00 0.00 0.00 39 1020.2
20260502225417 67 0.0 1.0 0.00 0.00 0.00 39 1020.3
20260502224417 68 113 1.0 5.0 0.00 0.00 0.00 39 1020.4
20260502223417 67 0.0 2.0 0.00 0.00 0.00 39 1020.4
20260502222437 67 135 5.0 8.0 0.00 0.00 0.00 39 1020.6
20260502221417 67 135 2.0 7.0 0.00 0.00 0.00 40 1020.7
20260502220417 67 113 4.0 6.0 0.00 0.00 0.00 40 1020.9
20260502215417 66 0.0 0.0 0.00 0.00 0.00 40 1021.1
20260502214417 67 158 3.0 6.0 0.00 0.00 0.00 40 1021.4
20260502213417 67 113 4.0 8.0 0.00 0.00 0.00 40 1021.5
20260502212417 66 90 3.0 7.0 0.00 0.00 0.00 41 1021.7
20260502211417 66 0.0 2.0 0.00 0.00 0.00 41 1021.9
20260502210417 66 135 4.0 8.0 0.00 0.00 0.00 41 1022.1
20260502205417 66 135 3.0 6.0 0.00 0.00 0.00 42 1022.3
20260502204417 65 113 3.0 8.0 0.00 0.00 0.00 42 1022.5
20260502203417 65 0.0 2.0 0.00 0.00 0.00 43 1022.8
20260502202417 65 113 5.0 7.0 0.00 0.00 0.00 43 1022.6
20260502201417 63 135 4.0 5.0 0.00 0.00 0.00 45 1022.8
20260502200417 63 113 7.0 10.0 0.00 0.00 0.00 45 1022.8
20260502195417 63 68 4.0 6.0 0.00 0.00 0.00 45 1022.9
20260502194417 62 68 2.0 6.0 0.00 0.00 0.00 47 1023.0
20260502193417 61 113 3.0 8.0 0.00 0.00 0.00 48 1022.8
20260502192417 60 0.0 1.0 0.00 0.00 0.00 50 1022.9
20260502191437 59 45 4.0 8.0 0.00 0.00 0.00 50 1023.1
20260502190417 59 90 6.0 9.0 0.00 0.00 0.00 50 1023.1
20260502185417 58 113 4.0 9.0 0.00 0.00 0.00 51 1023.0
20260502184417 58 113 6.0 8.0 0.00 0.00 0.00 51 1023.1
20260502183417 58 90 2.0 6.0 0.00 0.00 0.00 52 1023.2
20260502182417 57 68 2.0 5.0 0.00 0.00 0.00 52 1023.2
20260502181457 57 23 5.0 9.0 0.00 0.00 0.00 52 1023.2
20260502180457 57 113 5.0 8.0 0.00 0.00 0.00 54 1023.0
20260502170417 56 68 5.0 10.0 0.00 0.00 0.00 54 1023.8
20260502163416 55 338 1.0 3.0 0.00 0.04 0.00 56 1023.6
20260502162417 55 0.0 0.0 0.00 0.04 0.00 57 1023.3
20260502161417 54 225 3.0 7.0 0.00 0.04 0.00 58 1023.2
20260502160437 54 203 4.0 7.0 0.00 0.04 0.00 59 1023.2
20260502151416 53 158 2.0 5.0 0.00 0.04 0.00 66 1023.3
20260502150417 52 135 6.0 8.0 0.00 0.04 0.00 67 1023.2
20260502130417 50 315 5.0 9.0 0.00 0.04 0.00 74 1022.3
20260502123417 50 315 3.0 5.0 0.00 0.04 0.00 74 1021.6
20260502122416 50 113 1.0 4.0 0.00 0.04 0.00 75 1021.6
20260502121437 50 338 7.0 11.0 0.00 0.04 0.00 74 1021.9
20260502120417 50 0.0 0.0 0.00 0.04 0.00 75 1021.8
20260502115417 50 225 2.0 4.0 0.00 0.04 0.00 75 1021.7
20260502113416 50 158 4.0 5.0 0.00 0.04 0.00 74 1021.9
20260502112416 50 90 3.0 6.0 0.00 0.04 0.00 74 1022.1
20260502111416 50 0.0 0.0 0.00 0.04 0.00 75 1022.1
20260502110417 50 0.0 0.0 0.00 0.04 0.00 75 1022.2
20260502105416 50 0.0 0.0 0.00 0.04 0.00 75 1022.3
20260502104416 50 135 5.0 8.0 0.00 0.04 0.00 75 1022.0
20260502103417 50 113 3.0 4.0 0.00 0.04 0.00 75 1022.0
20260502102416 50 180 2.0 4.0 0.00 0.04 0.00 75 1021.8
20260502101416 50 0.0 0.0 0.00 0.04 0.00 74 1021.9
20260502100416 50 45 3.0 6.0 0.00 0.04 0.00 73 1021.7
20260502091416 51 0.0 0.0 0.00 0.05 0.00 71 1020.7
20260502090416 52 113 5.0 7.0 0.00 0.06 0.00 70 1021.0
20260502071416 52 158 2.0 9.0 0.00 0.19 0.00 67 1019.3
20260502070436 53 113 12.0 19.0 0.00 0.19 0.00 67 1019.3
20260502065416 53 90 9.0 14.0 0.00 0.19 0.00 66 1019.5
20260502064416 53 113 13.0 20.0 0.00 0.19 0.00 66 1019.2
20260502063416 53 113 8.0 18.0 0.00 0.19 0.00 66 1019.0
20260502062416 53 90 9.0 13.0 0.00 0.19 0.00 65 1019.0
20260502061416 53 113 7.0 23.0 0.00 0.19 0.00 65 1018.9
20260502060417 53 90 11.0 23.0 0.00 0.19 0.00 65 1018.7
20260502055417 53 113 9.0 14.0 0.00 0.19 0.19 65 1018.7
20260502054416 53 90 9.0 14.0 0.00 0.19 0.19 66 1018.8
20260502053416 53 135 10.0 17.0 0.00 0.19 0.19 67 1018.4
20260502052456 53 113 8.0 13.0 0.00 0.19 0.19 67 1018.3
20260502051417 53 90 13.0 19.0 0.00 0.19 0.19 67 1018.0
20260502050417 53 113 12.0 15.0 0.00 0.19 0.19 67 1018.0
20260502045416 53 135 12.0 24.0 0.00 0.19 0.19 66 1017.7
20260502044417 53 113 14.0 21.0 0.00 0.19 0.19 65 1017.7
20260502043416 54 113 18.0 24.0 0.00 0.19 0.19 65 1018.0
20260502042417 54 113 15.0 22.0 0.00 0.19 0.19 67 1017.5
20260502041416 54 90 16.0 22.0 0.00 0.19 0.19 67 1017.7
20260502040417 54 68 7.0 17.0 0.00 0.19 0.19 66 1017.6
20260502035416 54 113 11.0 17.0 0.00 0.19 0.19 66 1017.4
20260502034416 55 113 13.0 19.0 0.00 0.19 0.19 66 1017.4
20260502033416 55 90 10.0 15.0 0.00 0.19 0.19 66 1017.7
20260502032436 55 68 7.0 11.0 0.00 0.19 0.19 66 1017.9
20260502031456 55 113 8.0 11.0 0.00 0.19 0.19 67 1017.8
20260502030416 55 90 5.0 13.0 0.00 0.19 0.19 67 1017.7
20260502025417 56 90 3.0 6.0 0.00 0.19 0.19 67 1017.4
20260502024416 56 113 9.0 12.0 0.00 0.19 0.19 67 1017.8
20260502023416 56 113 8.0 13.0 0.00 0.19 0.19 66 1017.2
20260502022416 56 113 8.0 13.0 0.00 0.19 0.19 66 1017.1
20260502021525 57 90 12.0 16.0 0.00 0.19 0.19 65 1016.7
20260502020416 57 113 13.0 18.0 0.00 0.19 0.19 64 1016.1
20260502015416 58 113 8.0 12.0 0.00 0.19 0.19 62 1016.3
20260502014416 58 113 6.0 17.0 0.00 0.19 0.19 60 1016.0
20260502013416 59 135 7.0 13.0 0.00 0.19 0.19 58 1015.8
20260502012416 59 113 6.0 11.0 0.00 0.19 0.19 58 1015.9
20260502011416 59 90 7.0 12.0 0.00 0.19 0.19 58 1015.8
20260502010416 60 113 8.0 16.0 0.00 0.19 0.19 58 1015.6
20260502005416 60 113 11.0 16.0 0.00 0.19 0.19 57 1015.7
20260502004416 61 113 6.0 10.0 0.00 0.19 0.19 57 1016.0
20260502003416 61 113 10.0 20.0 0.00 0.19 0.19 56 1015.9
20260502002416 61 113 10.0 17.0 0.00 0.19 0.19 56 1015.8
20260502001416 62 90 9.0 15.0 0.00 0.19 0.19 55 1015.7
20260502000417 62 90 8.0 12.0 0.00 0.19 0.19 55 1015.7
20260501235416 63 113 10.0 16.0 0.00 0.19 0.19 54 1015.8
20260501234436 63 113 6.0 10.0 0.00 0.19 0.19 53 1015.6